TimeCST,TemperatureF,Dew PointF,Humidity,Sea Level PressureIn,VisibilityMPH,Wind Direction,Wind SpeedMPH,Gust SpeedMPH,PrecipitationIn,Events,Conditions,WindDirDegrees,DateUTC
12:53 AM,48.9,33.1,54,29.92,10.0,SW,12.7,-,N/A,,Clear,230,2013-11-09 06:53:00
1:53 AM,48.9,33.1,54,29.94,10.0,WSW,13.8,-,N/A,,Clear,240,2013-11-09 07:53:00
2:53 AM,46.9,33.1,59,29.94,10.0,SW,11.5,-,N/A,,Clear,230,2013-11-09 08:53:00
3:53 AM,45.0,33.1,63,29.95,10.0,SW,11.5,-,N/A,,Clear,230,2013-11-09 09:53:00
4:53 AM,46.0,33.1,61,29.97,10.0,SW,12.7,-,N/A,,Clear,230,2013-11-09 10:53:00
5:53 AM,44.1,33.1,65,30.00,10.0,WSW,9.2,-,N/A,,Clear,250,2013-11-09 11:53:00
6:53 AM,43.0,33.1,68,30.03,10.0,WSW,10.4,-,N/A,,Clear,240,2013-11-09 12:53:00
7:53 AM,45.0,33.1,63,30.05,10.0,WSW,11.5,-,N/A,,Clear,250,2013-11-09 13:53:00
8:53 AM,48.9,33.1,54,30.08,10.0,West,15.0,-,N/A,,Clear,280,2013-11-09 14:53:00
9:53 AM,55.0,33.1,43,30.10,10.0,West,18.4,-,N/A,,Clear,280,2013-11-09 15:53:00
10:53 AM,57.0,34.0,42,30.12,10.0,WNW,18.4,-,N/A,,Clear,290,2013-11-09 16:53:00
11:53 AM,59.0,34.0,39,30.12,10.0,WNW,18.4,-,N/A,,Clear,300,2013-11-09 17:53:00
12:53 PM,60.1,33.1,36,30.12,10.0,West,13.8,25.3,N/A,,Clear,280,2013-11-09 18:53:00
1:53 PM,61.0,33.1,35,30.13,10.0,WNW,19.6,-,N/A,,Clear,290,2013-11-09 19:53:00
2:53 PM,61.0,33.1,35,30.13,10.0,WNW,15.0,-,N/A,,Clear,290,2013-11-09 20:53:00
3:53 PM,60.1,30.9,33,30.15,10.0,WNW,13.8,-,N/A,,Clear,300,2013-11-09 21:53:00
4:53 PM,55.0,33.1,43,30.16,10.0,NW,9.2,-,N/A,,Clear,310,2013-11-09 22:53:00
5:53 PM,48.9,32.0,52,30.18,10.0,NW,9.2,-,N/A,,Clear,320,2013-11-09 23:53:00
6:53 PM,48.9,33.1,54,30.21,10.0,NW,9.2,-,N/A,,Clear,320,2013-11-10 00:53:00
7:53 PM,46.9,34.0,61,30.23,10.0,NW,9.2,-,N/A,,Clear,320,2013-11-10 01:53:00
8:53 PM,46.0,34.0,63,30.26,10.0,NW,9.2,-,N/A,,Clear,320,2013-11-10 02:53:00
9:53 PM,46.0,33.1,61,30.29,10.0,NNW,10.4,-,N/A,,Clear,340,2013-11-10 03:53:00
10:53 PM,45.0,30.9,58,30.30,10.0,NNW,10.4,-,N/A,,Clear,340,2013-11-10 04:53:00
11:53 PM,42.1,30.9,65,30.31,10.0,North,12.7,-,N/A,,Clear,350,2013-11-10 05:53:00